Flag for Liechtenstein Weather past 2 weeks in Vaduz, Liechtenstein

Now
88 °F

Hot.


Feels Like: 87 °F
Forecast: 64 / 87 °F
Wind: 6 mph from North

Location: Vaduz

Current Time: Aug 31, 2015 at 4:29:16 PM

Latest Report: Aug 31, 2015 at 3:00 PM


Visibility: N/A

Pressure: 29.88 "Hg

Humidity: 36%

Dew point: 58 °F

Location of VaduzLocation

Historic Weather in Vaduz — Graph

°F

Vaduz temperature yesterday

Maximum temperature yesterday: 88 °F (at 4:00 PM)
Minimum temperature yesterday: 70 °F (at 8:00 AM)
Average temperature yesterday: 79 °F

Past Weeks' High & Low Weather Summary

 TemperatureHumidityPressure
High88 °F (Aug 30, 4:00 PM)97% (Aug 20, 2:00 AM)30.28 "Hg (Aug 20, 2:00 AM)
Low54 °F (Aug 22, 12:00 AM)26% (Aug 31, 1:00 PM)29.67 "Hg (Aug 24, 11:00 AM)
Average68 °F67%30.02 "Hg
* Reported Aug 16 3:00 PM — Aug 31 3:00 PM, Vaduz, Weather by CustomWeather, © 2015

Note: Actual official high and low records may vary slightly from our data, if they occured in-between our weather recording intervals... More about our weather records

Advertising

Vaduz weather history for previous 24 hours

 ConditionsComfort  
Time TempWeatherWind HumidityBarometerVisibility
3:00 PM
Mon, Aug 31
88 °FHot.6 mph36%29.88 "HgN/A
2:00 PM87 °FPassing clouds.3 mph31%29.89 "Hg9 mi
1:00 PM86 °FPleasantly warm.1 mph26%29.90 "HgN/A
12:00 PM83 °FPleasantly warm.6 mph30%29.95 "HgN/A
11:00 AM79 °FSunny.6 mph35%29.98 "Hg9 mi
10:00 AM74 °FMild.5 mph41%30.01 "HgN/A
9:00 AM71 °FMild.6 mph43%30.04 "HgN/A
8:00 AM70 °FSunny.6 mph44%30.05 "Hg9 mi
7:00 AM70 °FMild.7 mph41%30.04 "HgN/A
6:00 AM72 °FMild.7 mph39%30.03 "HgN/A
5:00 AM73 °FClear.8 mph39%30.01 "Hg25 mi
4:00 AM75 °FMild.7 mph38%30.00 "HgN/A
3:00 AM75 °FMild.5 mph43%30.00 "HgN/A
2:00 AM77 °FWarm.6 mph40%30.01 "HgN/A
1:00 AM77 °FWarm.7 mph40%30.03 "HgN/A
12:00 AM78 °FWarm.7 mph42%30.03 "HgN/A
10:00 PM
Sun, Aug 30
74 °FMild.6 mph58%30.04 "HgN/A
9:00 PM71 °FMild.2 mph75%30.04 "HgN/A
8:00 PM74 °FSunny.No wind72%30.01 "Hg25 mi
7:00 PM82 °FWarm.3 mph46%29.98 "HgN/A
6:00 PM87 °FPleasantly warm.6 mph37%29.96 "HgN/A
5:00 PM88 °FSunny.6 mph42%29.96 "Hg9 mi
4:00 PM88 °FHot.6 mph42%29.98 "HgN/A
Weather by CustomWeather, © 2015

See weather overviewHow to use our weather pages